Regional Weather Roundup
Issued by NWS

Home | Current Version | Previous Version | Text Only | Print | Product List | Glossary On
Versions: 1 2 3 4 5 6 7 8 9 10 11 12 13 14 15 16 17 18 19 20 21 22 23 24 25 26 27 28 29 30 31 32 33 34 35 36 37 38 39 40 41 42 43 44 45 46 47 48 49 50
000
ASUS43 KDTX 191910
RWRMI
MICHIGAN HOURLY REGIONAL WEATHER ROUNDUP
NATIONAL WEATHER SERVICE DETROIT/PONTIAC MI
200 PM EST SUN FEB 19 2017

NOTE: "FAIR" INDICATES FEW OR NO CLOUDS BELOW 12,000 FEET WITH NO
SIGNIFICANT WEATHER AND/OR OBSTRUCTION TO VISIBILITY.

MIZ047>049-052>055-059>063-066>070-074>076-081>083-192000-
SOUTHEAST LOWER MICHIGAN

CITY           SKY/WX    TMP DP  RH WIND       PRES   REMARKS
ADRIAN         SUNNY     62  32  32 NW9       30.02S
ALMA           SUNNY     59  29  32 W13       30.01F
ANN ARBOR      SUNNY     63  30  28 W10       29.99F
BAD AXE        SUNNY     52  33  49 NW8       30.00S
CARO           SUNNY     56  37  48 W7        30.00S
DETROIT CITY   SUNNY     63  29  27 NW12      29.98S
DETROIT        MOSUNNY   64  30  27 W10       29.99F
FLINT          SUNNY     57  36  45 W12       30.01F
GROSSE ILE     SUNNY     64  31  28 W8        29.98S
HILLSDALE      SUNNY     61  32  33 NW8       30.02S
HOWELL         SUNNY     59  30  33 W9        30.00S

CITY           SKY/WX    TMP DP  RH WIND       PRES   REMARKS
JACKSON        SUNNY     62  25  24 NW9       30.01S
LAMBERTVILLE   SUNNY     64  34  33 W7        30.00F
LANSING        SUNNY     60  32  34 NW12      30.02F
LAPEER         FAIR      57  33  39 W8        30.00S
MASON          SUNNY     60  33  36 W12       30.01S
MONROE         SUNNY     63  39  41 W14G21    29.99S
MT. CLEMENS    MOSUNNY   63  33  33 NW9G20    29.97S
PONTIAC        MOSUNNY   60  30  32 NW13      29.98F
PORT HOPE        N/A     47  34  60 NW7       29.99R
PORT HURON     SUNNY     57  36  44 W8G17     29.99S
TRI CITIES     SUNNY     58  33  39 W10       30.00F
MIDLAND        FAIR      57  30  36 W12G17    29.99F
TROY           SUNNY     63  28  26 W12       30.00S
SAGINAW HB     SUNNY     59  30  33 W6        30.00S
$$
MIZ043>046-050>051-056>058-064>065-071>073-077>080-192000-
SOUTHWEST LOWER MICHIGAN

CITY           SKY/WX    TMP DP  RH WIND       PRES   REMARKS
BATTLE CREEK   SUNNY     61  27  27 W7        30.03S
BENTON HARBOR  SUNNY     55  32  41 W6        30.07R
BIG RAPIDS     SUNNY     56  30  37 W9        30.01S
COLDWATER      SUNNY     62  29  28 W7        30.03S
FREMONT        FAIR      58  29  32 W6        30.03S
HOLLAND        SUNNY     56  33  42 W9        30.05S
GRAND RAPIDS   MOSUNNY   60  32  34 W9        30.03R
IONIA          FAIR      61  30  31 W8        30.01R
KALAMAZOO      SUNNY     63  24  22 NW8       30.05R
LUDINGTON      SUNNY     54  34  45 SW7       30.04R
MARSHALL       SUNNY     64  28  25 W8        30.02S
MOUNT PLEASANT SUNNY     58  32  37 W10G16    30.00F
MUSKEGON       MOSUNNY   58  30  34 W7        30.05R
SOUTH HAVEN    SUNNY     52  35  51 W6        30.06S
$$
MIZ016>042-192000-
NORTHERN LOWER MICHIGAN

CITY           SKY/WX    TMP DP  RH WIND       PRES   REMARKS
ALPENA         SUNNY     49  30  48 NW14      30.00R
BEAVER ISLAND  SUNNY     44  32  61 W9        30.04R
BELLAIRE       SUNNY     47  31  53 W6        30.05R
CADILLAC       SUNNY     53  32  43 W5        30.01R
CHARLEVOIX     SUNNY     43  33  67 W7        30.07R
FRANKFORT      SUNNY     50  35  55 W6        30.04S
GAYLORD        SUNNY     47  28  47 NW10      30.00R
GRAYLING       SUNNY     48  31  51 W10       30.01S
HARBOR SPRINGS SUNNY     41  32  69 W8        30.03R
HOUGHTON LAKE  SUNNY     48  31  51 W9        30.01R
MANISTEE       SUNNY     51  33  50 W6        30.04S
OSCODA         SUNNY     56  30  36 W9G17     29.97S
PELLSTON       SUNNY     43  28  55 W15       30.02R
ROGERS CITY    SUNNY     44  30  57 N10       30.01R
TRAVERSE CITY  MOSUNNY   47  32  56 NE7       30.03S
$$
MIZ007>008-015-192000-
EASTERN UPPER MICHIGAN

CITY           SKY/WX    TMP DP  RH WIND       PRES   REMARKS
KINROSS        SUNNY     40  30  67 NW13      30.00R WCI  32
MACKINAC ISLAN SUNNY     40  31  71 W8        30.01R WCI  34
NEWBERRY       SUNNY     43  29  57 N5        30.01R
S. S. MARIE    SUNNY     44  30  57 NW9       29.99R
MUNISING         N/A     40  31  70 NW8       30.05R WCI  34
$$
MIZ004>006-011>014-085-192000-
CENTRAL UPPER MICHIGAN

CITY           SKY/WX    TMP DP  RH WIND       PRES   REMARKS
MANISTIQUE     SUNNY     44  32  63 W5        30.03S
ESCANABA       SUNNY     46  31  55 E5        30.04F
MENOMINEE      SUNNY     48  32  53 S8        30.05S
SAWYER-GWINN   SUNNY     41  28  60 CALM      30.04R
$$
MIZ001>003-009>011-084-192000-
WESTERN UPPER MICHIGAN

CITY           SKY/WX    TMP DP  RH WIND       PRES   REMARKS
IRON MOUNTAIN  SUNNY     49  30  48 CALM      30.01F
HOUGHTON       SUNNY     42  28  57 CALM      30.02S
COPPER HARBOR    N/A     38  31  76 N6        30.05S WCI  33
IRONWOOD       SUNNY     51  28  41 E5        29.98F
$$

ABBREVIATIONS USED IN REMARKS
   TC - TEMPERATURE IN CELSIUS
  WCI - WIND CHILL INDEX
   HX - HEAT INDEX
  VSB - VISIBILITY





USA.gov is the U.S. government's official web portal to all federal, state and local government web resources and services.